World > North America > United States > South Dakota > Tea  

Tea, SD Hourly Weather Updates

Feedback E-mail the Weather

Quick Clicks

Tea, SD Weather Maps

°F °C°F °C
Tea Weather Map
UTC Time: 5/25/2024, 13:46
Your Time:

Tea, SD Regional Weather

Expires:202405251400;;839942
ASUS43 KFSD 251310
RWRSD 

WEATHER ROUNDUP FOR SOUTH DAKOTA
NATIONAL WEATHER SERVICE SIOUX FALLS SD
800 AM CDT SAT MAY 25 2024

NOTE: "FAIR" INDICATES FEW OR NO CLOUDS BELOW 12,000 FEET WITH NO
SIGNIFICANT WEATHER AND/OR OBSTRUCTIONS TO VISIBILITY.



SDZ017-020-022-023-036>040-048>070-251400-
SOUTHEAST SOUTH DAKOTA
  
CITY           SKY/WX    TMP DP  RH WIND       PRES   REMARKS
SIOUX FALLS    MOSUNNY   56  45  66 S17G25    29.78S TC  13           
HURON          MOSUNNY   53  45  74 S13       29.71S TC  12           
CHAMBERLAIN    PTSUNNY   51  47  84 SE6       29.71F TC  11           
MADISON          N/A     55  48  76 S16G23    29.75R TC  13           
MITCHELL       MOSUNNY   57  45  64 S10       29.74S TC  14           
YANKTON        MOSUNNY   59  48  67 S17G23    29.78F TC  15           
$$
 
ABBREVIATIONS USED IN REMARKS
   TC - TEMPERATURE IN CELSIUS
  WCI - WIND CHILL INDEX
   HX - HEAT INDEX
  VSB - VISIBILITY

  

SKY/WX - Weather  TMP - Temperature  DP - Dew Point  RH - Humidity
WIND - Wind Direction/Speed PRES - Barometric Pressure VSB - Visibility
WCI - Wind Chill Index E13G22 Wind - East Wind 13 mph/Gusts of 22 mph

Trending Headlines

Trending Entertainment Headlines

Tea Radar Loop

Use the map search tool if you want to place a location marker on the radar map...

Tea Quick Facts

National Two Day Weather Forecast


E-mail the Tea Weather Forecast

Voice your opinion or tell us about page issues...